Year,Month,Day,Hour,Minute,Value (Times are PST for temperature in C)
2008,05,23,00,00,6.90
2008,05,23,00,01,6.90
2008,05,23,00,02,6.90
2008,05,23,00,03,6.90
2008,05,23,00,04,6.90
2008,05,23,00,05,6.90
2008,05,23,00,06,6.90
2008,05,23,00,07,6.90
2008,05,23,00,08,6.90
2008,05,23,00,09,6.90
2008,05,23,00,10,6.90
2008,05,23,00,11,6.90
2008,05,23,00,12,6.90
2008,05,23,00,13,6.90
2008,05,23,00,14,6.90
2008,05,23,00,15,6.90
2008,05,23,00,16,6.80
2008,05,23,00,17,6.80
2008,05,23,00,18,6.80
2008,05,23,00,19,6.80
2008,05,23,00,20,6.80
2008,05,23,00,21,6.80
2008,05,23,00,22,6.80
2008,05,23,00,23,6.80
2008,05,23,00,24,6.80
2008,05,23,00,25,6.70
2008,05,23,00,26,6.70
2008,05,23,00,27,6.70
2008,05,23,00,28,6.70
2008,05,23,00,29,6.70
2008,05,23,00,30,6.70
2008,05,23,00,31,6.70
2008,05,23,00,32,6.70
2008,05,23,00,33,6.70
2008,05,23,00,34,6.70
2008,05,23,00,35,6.70
2008,05,23,00,36,6.70
2008,05,23,00,37,6.70
2008,05,23,00,38,6.60
2008,05,23,00,39,6.60
2008,05,23,00,40,6.60
2008,05,23,00,41,6.60
2008,05,23,00,42,6.60
2008,05,23,00,43,6.60
2008,05,23,00,44,6.60
2008,05,23,00,45,6.50
2008,05,23,00,46,6.40
2008,05,23,00,47,6.40
2008,05,23,00,48,6.40
2008,05,23,00,49,6.40
2008,05,23,00,50,6.40
2008,05,23,00,51,6.40
2008,05,23,00,52,6.40
2008,05,23,00,53,6.40
2008,05,23,00,54,6.40
2008,05,23,00,55,6.40
2008,05,23,00,56,6.30
2008,05,23,00,57,6.30
2008,05,23,00,58,6.30
2008,05,23,00,59,6.30
2008,05,23,01,00,6.30
2008,05,23,01,01,6.20
2008,05,23,01,02,6.20
2008,05,23,01,03,6.20
2008,05,23,01,04,6.20
2008,05,23,01,05,6.20
2008,05,23,01,06,6.20
2008,05,23,01,07,6.20
2008,05,23,01,08,6.20
2008,05,23,01,09,6.20
2008,05,23,01,10,6.30
2008,05,23,01,11,6.30
2008,05,23,01,12,6.30
2008,05,23,01,13,6.30
2008,05,23,01,14,6.30
2008,05,23,01,15,6.30
2008,05,23,01,16,6.30
2008,05,23,01,17,6.30
2008,05,23,01,18,6.20
2008,05,23,01,19,6.20
2008,05,23,01,20,6.30
2008,05,23,01,21,6.30
2008,05,23,01,22,6.30
2008,05,23,01,23,6.30
2008,05,23,01,24,6.30
2008,05,23,01,25,6.30
2008,05,23,01,26,6.30
2008,05,23,01,27,6.30
2008,05,23,01,28,6.30
2008,05,23,01,29,6.30
2008,05,23,01,30,6.30
2008,05,23,01,31,6.30
2008,05,23,01,32,6.30
2008,05,23,01,33,6.30
2008,05,23,01,34,6.30
2008,05,23,01,35,6.30
2008,05,23,01,36,6.30
2008,05,23,01,37,6.30
2008,05,23,01,38,6.20
2008,05,23,01,39,6.20
2008,05,23,01,40,6.20
2008,05,23,01,41,6.20
2008,05,23,01,42,6.20
2008,05,23,01,43,6.20
2008,05,23,01,44,6.20
2008,05,23,01,45,6.20
2008,05,23,01,46,6.20
2008,05,23,01,47,6.20
2008,05,23,01,48,6.20
2008,05,23,01,49,6.20
2008,05,23,01,50,6.20
2008,05,23,01,51,6.20
2008,05,23,01,52,6.10
2008,05,23,01,53,6.10
2008,05,23,01,54,6.10
2008,05,23,01,55,6.10
2008,05,23,01,56,6.00
2008,05,23,01,57,6.00
2008,05,23,01,58,6.00
2008,05,23,01,59,6.00
2008,05,23,02,00,6.00
2008,05,23,02,01,6.00
2008,05,23,02,02,6.00
2008,05,23,02,03,6.00
2008,05,23,02,04,6.00
2008,05,23,02,05,6.00
2008,05,23,02,06,6.00
2008,05,23,02,07,6.00
2008,05,23,02,08,6.00
2008,05,23,02,09,6.00
2008,05,23,02,10,6.00
2008,05,23,02,11,6.00
2008,05,23,02,12,6.00
2008,05,23,02,13,6.10
2008,05,23,02,14,6.10
2008,05,23,02,15,6.10
2008,05,23,02,16,6.10
2008,05,23,02,17,6.10
2008,05,23,02,18,6.10
2008,05,23,02,19,6.10
2008,05,23,02,20,6.10
2008,05,23,02,21,6.10
2008,05,23,02,22,6.10
2008,05,23,02,23,6.10
2008,05,23,02,24,6.10
2008,05,23,02,25,6.00
2008,05,23,02,26,6.00
2008,05,23,02,27,6.00
2008,05,23,02,28,6.00
2008,05,23,02,29,6.00
2008,05,23,02,30,6.00
2008,05,23,02,31,6.00
2008,05,23,02,32,6.00
2008,05,23,02,33,6.00
2008,05,23,02,34,6.00
2008,05,23,02,35,6.00
2008,05,23,02,36,6.10
2008,05,23,02,37,6.10
2008,05,23,02,38,6.10
2008,05,23,02,39,6.10
2008,05,23,02,40,6.10
2008,05,23,02,41,6.10
2008,05,23,02,42,6.10
2008,05,23,02,43,6.10
2008,05,23,02,44,6.00
2008,05,23,02,45,6.00
2008,05,23,02,46,6.00
2008,05,23,02,47,6.00
2008,05,23,02,48,6.00
2008,05,23,02,49,6.00
2008,05,23,02,50,6.00
2008,05,23,02,51,6.00
2008,05,23,02,52,6.00
2008,05,23,02,53,6.00
2008,05,23,02,54,6.00
2008,05,23,02,55,6.00
2008,05,23,02,56,6.00
2008,05,23,02,57,6.00
2008,05,23,02,58,6.00
2008,05,23,02,59,6.00
2008,05,23,03,00,6.00
2008,05,23,03,01,6.00
2008,05,23,03,02,6.00
2008,05,23,03,03,6.00
2008,05,23,03,04,6.00
2008,05,23,03,05,6.00
2008,05,23,03,06,6.00
2008,05,23,03,07,6.00
2008,05,23,03,08,6.00
2008,05,23,03,09,6.00
2008,05,23,03,10,6.00
2008,05,23,03,11,6.00
2008,05,23,03,12,5.90
2008,05,23,03,13,5.90
2008,05,23,03,14,5.90
2008,05,23,03,15,5.90
2008,05,23,03,16,5.90
2008,05,23,03,17,5.90
2008,05,23,03,18,5.90
2008,05,23,03,19,5.90
2008,05,23,03,20,5.90
2008,05,23,03,21,5.90
2008,05,23,03,22,5.90
2008,05,23,03,23,5.90
2008,05,23,03,24,5.90
2008,05,23,03,25,5.90
2008,05,23,03,26,5.90
2008,05,23,03,27,5.90
2008,05,23,03,28,5.90
2008,05,23,03,29,5.90
2008,05,23,03,30,5.90
2008,05,23,03,31,5.90
2008,05,23,03,32,5.80
2008,05,23,03,33,5.80
2008,05,23,03,34,5.80
2008,05,23,03,35,5.80
2008,05,23,03,36,5.70
2008,05,23,03,37,5.70
2008,05,23,03,38,5.70
2008,05,23,03,39,5.70
2008,05,23,03,40,5.70
2008,05,23,03,41,5.70
2008,05,23,03,42,5.70
2008,05,23,03,43,5.70
2008,05,23,03,44,5.70
2008,05,23,03,45,5.70
2008,05,23,03,46,5.60
2008,05,23,03,47,5.60
2008,05,23,03,48,5.60
2008,05,23,03,49,5.60
2008,05,23,03,50,5.60
2008,05,23,03,51,5.50
2008,05,23,03,52,5.50
2008,05,23,03,53,5.60
2008,05,23,03,54,5.60
2008,05,23,03,55,5.60
2008,05,23,03,56,5.60
2008,05,23,03,57,5.60
2008,05,23,03,58,5.60
2008,05,23,03,59,5.70
2008,05,23,04,00,5.70
2008,05,23,04,01,5.70
2008,05,23,04,02,5.70
2008,05,23,04,03,5.70
2008,05,23,04,04,5.70
2008,05,23,04,05,5.70
2008,05,23,04,06,5.70
2008,05,23,04,07,5.70
2008,05,23,04,08,5.70
2008,05,23,04,09,5.70
2008,05,23,04,10,5.70
2008,05,23,04,11,5.70
2008,05,23,04,12,5.70
2008,05,23,04,13,5.70
2008,05,23,04,14,5.70
2008,05,23,04,15,5.70
2008,05,23,04,16,5.70
2008,05,23,04,17,5.70
2008,05,23,04,18,5.70
2008,05,23,04,19,5.70
2008,05,23,04,20,5.70
2008,05,23,04,21,5.70
2008,05,23,04,22,5.70
2008,05,23,04,23,5.70
2008,05,23,04,24,5.70
2008,05,23,04,25,5.70
2008,05,23,04,26,5.70
2008,05,23,04,27,5.70
2008,05,23,04,28,5.70
2008,05,23,04,29,5.70
2008,05,23,04,30,5.70
2008,05,23,04,31,5.70
2008,05,23,04,32,5.60
2008,05,23,04,33,5.60
2008,05,23,04,34,5.60
2008,05,23,04,35,5.60
2008,05,23,04,36,5.60
2008,05,23,04,37,5.60
2008,05,23,04,38,5.60
2008,05,23,04,39,5.70
2008,05,23,04,40,5.70
2008,05,23,04,41,5.70
2008,05,23,04,42,5.60
2008,05,23,04,43,5.60
2008,05,23,04,44,5.60
2008,05,23,04,45,5.60
2008,05,23,04,46,5.60
2008,05,23,04,47,5.60
2008,05,23,04,48,5.60
2008,05,23,04,49,5.50
2008,05,23,04,50,5.50
2008,05,23,04,51,5.50
2008,05,23,04,52,5.50
2008,05,23,04,53,5.40
2008,05,23,04,54,5.40
2008,05,23,04,55,5.40
2008,05,23,04,56,5.40
2008,05,23,04,57,5.50
2008,05,23,04,58,5.50
2008,05,23,04,59,5.50
2008,05,23,05,00,5.50
2008,05,23,05,01,5.50
2008,05,23,05,02,5.40
2008,05,23,05,03,5.40
2008,05,23,05,04,5.40
2008,05,23,05,05,5.40
2008,05,23,05,06,5.40
2008,05,23,05,07,5.40
2008,05,23,05,08,5.40
2008,05,23,05,09,5.40
2008,05,23,05,10,5.40
2008,05,23,05,11,5.40
2008,05,23,05,12,5.40
2008,05,23,05,13,5.40
2008,05,23,05,14,5.30
2008,05,23,05,15,5.30
2008,05,23,05,16,5.30
2008,05,23,05,17,5.30
2008,05,23,05,18,5.30
2008,05,23,05,19,5.30
2008,05,23,05,20,5.30
2008,05,23,05,21,5.30
2008,05,23,05,22,5.30
2008,05,23,05,23,5.30
2008,05,23,05,24,5.30
2008,05,23,05,25,5.30
2008,05,23,05,26,5.30
2008,05,23,05,27,5.40
2008,05,23,05,28,5.40
2008,05,23,05,29,5.40
2008,05,23,05,30,5.30
2008,05,23,05,31,5.30
2008,05,23,05,32,5.30
2008,05,23,05,33,5.30
2008,05,23,05,34,5.30
2008,05,23,05,35,5.30
2008,05,23,05,36,5.30
2008,05,23,05,37,5.30
2008,05,23,05,38,5.30
2008,05,23,05,39,5.30
2008,05,23,05,40,5.30
2008,05,23,05,41,5.30
2008,05,23,05,42,5.30
2008,05,23,05,43,5.30
2008,05,23,05,44,5.30
2008,05,23,05,45,5.20
2008,05,23,05,46,5.20
2008,05,23,05,47,5.20
2008,05,23,05,48,5.20
2008,05,23,05,49,5.20
2008,05,23,05,50,5.20
2008,05,23,05,51,5.20
2008,05,23,05,52,5.20
2008,05,23,05,53,5.30
2008,05,23,05,54,5.30
2008,05,23,05,55,5.30
2008,05,23,05,56,5.30
2008,05,23,05,57,5.30
2008,05,23,05,58,5.30
2008,05,23,05,59,5.30
2008,05,23,06,00,5.30
2008,05,23,06,01,5.30
2008,05,23,06,02,5.30
2008,05,23,06,03,5.30
2008,05,23,06,04,5.30
2008,05,23,06,05,5.30
2008,05,23,06,06,5.30
2008,05,23,06,07,5.30
2008,05,23,06,08,5.30
2008,05,23,06,09,5.30
2008,05,23,06,10,5.30
2008,05,23,06,11,5.30
2008,05,23,06,12,5.30
2008,05,23,06,13,5.30
2008,05,23,06,14,5.20
2008,05,23,06,15,5.20
2008,05,23,06,16,5.20
2008,05,23,06,17,5.20
2008,05,23,06,18,5.20
2008,05,23,06,19,5.20
2008,05,23,06,20,5.20
2008,05,23,06,21,5.20
2008,05,23,06,22,5.20
2008,05,23,06,23,5.30
2008,05,23,06,24,5.30
2008,05,23,06,25,5.30
2008,05,23,06,26,5.30
2008,05,23,06,27,5.30
2008,05,23,06,28,5.30
2008,05,23,06,29,5.30
2008,05,23,06,30,5.40
2008,05,23,06,31,5.40
2008,05,23,06,32,5.40
2008,05,23,06,33,5.50
2008,05,23,06,34,5.50
2008,05,23,06,35,5.60
2008,05,23,06,36,5.60
2008,05,23,06,37,5.70
2008,05,23,06,38,5.70
2008,05,23,06,39,5.70
2008,05,23,06,40,5.80
2008,05,23,06,41,5.90
2008,05,23,06,42,5.90
2008,05,23,06,43,6.00
2008,05,23,06,44,6.10
2008,05,23,06,45,6.10
2008,05,23,06,46,6.20
2008,05,23,06,47,6.20
2008,05,23,06,48,6.20
2008,05,23,06,49,6.20
2008,05,23,06,50,6.30
2008,05,23,06,51,6.30
2008,05,23,06,52,6.40
2008,05,23,06,53,6.40
2008,05,23,06,54,6.50
2008,05,23,06,55,6.60
2008,05,23,06,56,6.60
2008,05,23,06,57,6.60
2008,05,23,06,58,6.60
2008,05,23,06,59,6.70
2008,05,23,07,00,6.70
2008,05,23,07,01,6.70
2008,05,23,07,02,6.80
2008,05,23,07,03,6.90
2008,05,23,07,04,7.00
2008,05,23,07,05,7.00
2008,05,23,07,06,7.10
2008,05,23,07,07,7.10
2008,05,23,07,08,7.20
2008,05,23,07,09,7.20
2008,05,23,07,10,7.30
2008,05,23,07,11,7.30
2008,05,23,07,12,7.30
2008,05,23,07,13,7.30
2008,05,23,07,14,7.40
2008,05,23,07,15,7.40
2008,05,23,07,16,7.50
2008,05,23,07,17,7.50
2008,05,23,07,18,7.60
2008,05,23,07,19,7.60
2008,05,23,07,20,7.60
2008,05,23,07,21,7.70
2008,05,23,07,22,7.70
2008,05,23,07,23,7.80
2008,05,23,07,24,7.80
2008,05,23,07,25,7.80
2008,05,23,07,26,7.90
2008,05,23,07,27,7.90
2008,05,23,07,28,7.90
2008,05,23,07,29,7.80
2008,05,23,07,30,7.80
2008,05,23,07,31,7.80
2008,05,23,07,32,7.80
2008,05,23,07,33,7.80
2008,05,23,07,34,7.80
2008,05,23,07,35,7.80
2008,05,23,07,36,7.80
2008,05,23,07,37,7.90
2008,05,23,07,38,8.00
2008,05,23,07,39,8.00
2008,05,23,07,40,8.10
2008,05,23,07,41,8.10
2008,05,23,07,42,8.20
2008,05,23,07,43,8.30
2008,05,23,07,44,8.40
2008,05,23,07,45,8.50
2008,05,23,07,46,8.50
2008,05,23,07,47,8.60
2008,05,23,07,48,8.70
2008,05,23,07,49,8.80
2008,05,23,07,50,8.80
2008,05,23,07,51,8.90
2008,05,23,07,52,8.90
2008,05,23,07,53,9.00
2008,05,23,07,54,9.00
2008,05,23,07,55,8.90
2008,05,23,07,56,8.90
2008,05,23,07,57,9.00
2008,05,23,07,58,9.00
2008,05,23,07,59,9.10
2008,05,23,08,00,9.10
2008,05,23,08,01,9.20
2008,05,23,08,02,9.30
2008,05,23,08,03,9.40
2008,05,23,08,04,9.50
2008,05,23,08,05,9.60
2008,05,23,08,06,9.70
2008,05,23,08,07,9.80
2008,05,23,08,08,9.90
2008,05,23,08,09,9.90
2008,05,23,08,10,10.10
2008,05,23,08,11,10.10
2008,05,23,08,12,10.20
2008,05,23,08,13,10.20
2008,05,23,08,14,10.30
2008,05,23,08,15,10.30
2008,05,23,08,16,10.30
2008,05,23,08,17,10.20
2008,05,23,08,18,10.30
2008,05,23,08,19,10.30
2008,05,23,08,20,10.40
2008,05,23,08,21,10.40
2008,05,23,08,22,10.60
2008,05,23,08,23,10.60
2008,05,23,08,24,10.70
2008,05,23,08,25,10.80
2008,05,23,08,26,10.90
2008,05,23,08,27,10.90
2008,05,23,08,28,10.90
2008,05,23,08,29,10.90
2008,05,23,08,30,10.90
2008,05,23,08,31,10.90
2008,05,23,08,32,10.90
2008,05,23,08,33,10.80
2008,05,23,08,34,10.60
2008,05,23,08,35,10.60
2008,05,23,08,36,10.50
2008,05,23,08,37,10.40
2008,05,23,08,38,10.40
2008,05,23,08,39,10.40
2008,05,23,08,40,10.40
2008,05,23,08,41,10.40
2008,05,23,08,42,10.40
2008,05,23,08,43,10.40
2008,05,23,08,44,10.30
2008,05,23,08,45,10.20
2008,05,23,08,46,10.10
2008,05,23,08,47,10.00
2008,05,23,08,48,9.90
2008,05,23,08,49,9.80
2008,05,23,08,50,9.70
2008,05,23,08,51,9.60
2008,05,23,08,52,9.50
2008,05,23,08,53,9.50
2008,05,23,08,54,9.40
2008,05,23,08,55,9.30
2008,05,23,08,56,9.30
2008,05,23,08,57,9.20
2008,05,23,08,58,9.20
2008,05,23,08,59,9.20
2008,05,23,09,00,9.30
2008,05,23,09,01,9.40
2008,05,23,09,02,9.40
2008,05,23,09,03,9.50
2008,05,23,09,04,9.70
2008,05,23,09,05,9.70
2008,05,23,09,06,9.80
2008,05,23,09,07,9.90
2008,05,23,09,08,9.90
2008,05,23,09,09,10.10
2008,05,23,09,10,10.10
2008,05,23,09,11,10.10
2008,05,23,09,12,10.10
2008,05,23,09,13,10.20
2008,05,23,09,14,10.20
2008,05,23,09,15,10.30
2008,05,23,09,16,10.30
2008,05,23,09,17,10.40
2008,05,23,09,18,10.40
2008,05,23,09,19,10.40
2008,05,23,09,20,10.40
2008,05,23,09,21,10.50
2008,05,23,09,22,10.60
2008,05,23,09,23,10.60
2008,05,23,09,24,10.60
2008,05,23,09,25,10.60
2008,05,23,09,26,10.60
2008,05,23,09,27,10.70
2008,05,23,09,28,10.70
2008,05,23,09,29,10.80
2008,05,23,09,30,10.80
2008,05,23,09,31,10.90
2008,05,23,09,32,10.90
2008,05,23,09,33,10.90
2008,05,23,09,34,10.90
2008,05,23,09,35,10.90
2008,05,23,09,36,10.90
2008,05,23,09,37,10.90
2008,05,23,09,38,11.10
2008,05,23,09,39,11.10
2008,05,23,09,40,11.10
2008,05,23,09,41,11.10
2008,05,23,09,42,11.20
2008,05,23,09,43,11.20
2008,05,23,09,44,11.30
2008,05,23,09,45,11.40
2008,05,23,09,46,11.50
2008,05,23,09,47,11.60
2008,05,23,09,48,11.70
2008,05,23,09,49,11.80
2008,05,23,09,50,12.00
2008,05,23,09,51,12.10
2008,05,23,09,52,12.20
2008,05,23,09,53,12.30
2008,05,23,09,54,12.40
2008,05,23,09,55,12.50
2008,05,23,09,56,12.70
2008,05,23,09,57,12.80
2008,05,23,09,58,12.90
2008,05,23,09,59,13.00
2008,05,23,10,00,13.10
2008,05,23,10,01,13.10
2008,05,23,10,02,13.20
2008,05,23,10,03,13.30
2008,05,23,10,04,13.30
2008,05,23,10,05,13.30
2008,05,23,10,06,13.30
2008,05,23,10,07,13.30
2008,05,23,10,08,13.20
2008,05,23,10,09,13.20
2008,05,23,10,10,13.20
2008,05,23,10,11,13.20
2008,05,23,10,12,13.30
2008,05,23,10,13,13.30
2008,05,23,10,14,13.30
2008,05,23,10,15,13.20
2008,05,23,10,16,13.10
2008,05,23,10,17,12.90
2008,05,23,10,18,12.80
2008,05,23,10,19,12.80
2008,05,23,10,20,12.70
2008,05,23,10,21,12.60
2008,05,23,10,22,12.50
2008,05,23,10,23,12.50
2008,05,23,10,24,12.40
2008,05,23,10,25,12.30
2008,05,23,10,26,12.30
2008,05,23,10,27,12.30
2008,05,23,10,28,12.30
2008,05,23,10,29,12.40
2008,05,23,10,30,12.50
2008,05,23,10,31,12.60
2008,05,23,10,32,12.80
2008,05,23,10,33,12.80
2008,05,23,10,34,12.80
2008,05,23,10,35,12.90
2008,05,23,10,36,13.00
2008,05,23,10,37,13.10
2008,05,23,10,38,13.20
2008,05,23,10,39,13.20
2008,05,23,10,40,13.30
2008,05,23,10,41,13.30
2008,05,23,10,42,13.20
2008,05,23,10,43,13.20
2008,05,23,10,44,13.10
2008,05,23,10,45,13.10
2008,05,23,10,46,13.00
2008,05,23,10,47,13.00
2008,05,23,10,48,12.90
2008,05,23,10,49,12.90
2008,05,23,10,50,12.90
2008,05,23,10,51,12.90
2008,05,23,10,52,12.80
2008,05,23,10,53,12.80
2008,05,23,10,54,12.80
2008,05,23,10,55,12.80
2008,05,23,10,56,12.80
2008,05,23,10,57,12.80
2008,05,23,10,58,12.80
2008,05,23,10,59,12.80
2008,05,23,11,00,12.80
2008,05,23,11,01,12.80
2008,05,23,11,02,12.80
2008,05,23,11,03,12.80
2008,05,23,11,04,12.80
2008,05,23,11,05,12.80
2008,05,23,11,06,12.70
2008,05,23,11,07,12.70
2008,05,23,11,08,12.70
2008,05,23,11,09,12.70
2008,05,23,11,10,12.70
2008,05,23,11,11,12.80
2008,05,23,11,12,12.80
2008,05,23,11,13,12.80
2008,05,23,11,14,12.90
2008,05,23,11,15,13.00
2008,05,23,11,16,13.00
2008,05,23,11,17,13.00
2008,05,23,11,18,13.00
2008,05,23,11,19,12.90
2008,05,23,11,20,12.90
2008,05,23,11,21,13.00
2008,05,23,11,22,13.00
2008,05,23,11,23,13.00
2008,05,23,11,24,13.10
2008,05,23,11,25,13.20
2008,05,23,11,26,13.20
2008,05,23,11,27,13.20
2008,05,23,11,28,13.30
2008,05,23,11,29,13.40
2008,05,23,11,30,13.50
2008,05,23,11,31,13.60
2008,05,23,11,32,13.60
2008,05,23,11,33,13.60
2008,05,23,11,34,13.70
2008,05,23,11,35,13.70
2008,05,23,11,36,13.70
2008,05,23,11,37,13.70
2008,05,23,11,38,13.60
2008,05,23,11,39,13.60
2008,05,23,11,40,13.60
2008,05,23,11,41,13.50
2008,05,23,11,42,13.60
2008,05,23,11,43,13.60
2008,05,23,11,44,13.60
2008,05,23,11,45,13.70
2008,05,23,11,46,13.70
2008,05,23,11,47,13.80
2008,05,23,11,48,13.80
2008,05,23,11,49,13.90
2008,05,23,11,50,13.90
2008,05,23,11,51,13.90
2008,05,23,11,52,13.90
2008,05,23,11,53,13.90
2008,05,23,11,54,13.90
2008,05,23,11,55,13.80
2008,05,23,11,56,13.80
2008,05,23,11,57,13.90
2008,05,23,11,58,13.90
2008,05,23,11,59,14.00
2008,05,23,12,00,14.10
2008,05,23,12,01,14.10
2008,05,23,12,02,14.20
2008,05,23,12,03,14.20
2008,05,23,12,04,14.20
2008,05,23,12,05,14.20
2008,05,23,12,06,14.20
2008,05,23,12,07,14.20
2008,05,23,12,08,14.20
2008,05,23,12,09,14.30
2008,05,23,12,10,14.30
2008,05,23,12,11,14.30
2008,05,23,12,12,14.40
2008,05,23,12,13,14.50
2008,05,23,12,14,14.50
2008,05,23,12,15,14.50
2008,05,23,12,16,14.50
2008,05,23,12,17,14.60
2008,05,23,12,18,14.60
2008,05,23,12,19,14.60
2008,05,23,12,20,14.60
2008,05,23,12,21,14.80
2008,05,23,12,22,14.80
2008,05,23,12,23,14.80
2008,05,23,12,24,14.80
2008,05,23,12,25,14.90
2008,05,23,12,26,15.00
2008,05,23,12,27,15.10
2008,05,23,12,28,15.00
2008,05,23,12,29,15.10
2008,05,23,12,30,15.10
2008,05,23,12,31,15.20
2008,05,23,12,32,15.20
2008,05,23,12,33,15.40
2008,05,23,12,34,15.50
2008,05,23,12,35,15.70
2008,05,23,12,36,15.80
2008,05,23,12,37,15.90
2008,05,23,12,38,15.90
2008,05,23,12,39,15.90
2008,05,23,12,40,16.00
2008,05,23,12,41,16.10
2008,05,23,12,42,16.00
2008,05,23,12,43,15.90
2008,05,23,12,44,15.80
2008,05,23,12,45,15.80
2008,05,23,12,46,15.80
2008,05,23,12,47,15.90
2008,05,23,12,48,15.90
2008,05,23,12,49,15.90
2008,05,23,12,50,15.90
2008,05,23,12,51,15.90
2008,05,23,12,52,15.90
2008,05,23,12,53,15.90
2008,05,23,12,54,16.10
2008,05,23,12,55,16.20
2008,05,23,12,56,16.40
2008,05,23,12,57,16.40
2008,05,23,12,58,16.60
2008,05,23,12,59,16.70
2008,05,23,13,00,16.70
2008,05,23,13,01,16.70
2008,05,23,13,02,16.70
2008,05,23,13,03,16.70
2008,05,23,13,04,16.70
2008,05,23,13,05,16.80
2008,05,23,13,06,16.70
2008,05,23,13,07,16.70
2008,05,23,13,08,16.70
2008,05,23,13,09,16.70
2008,05,23,13,10,16.80
2008,05,23,13,11,16.90
2008,05,23,13,12,17.00
2008,05,23,13,13,17.00
2008,05,23,13,14,17.20
2008,05,23,13,15,17.30
2008,05,23,13,16,17.40
2008,05,23,13,17,17.50
2008,05,23,13,18,17.70
2008,05,23,13,19,17.90
2008,05,23,13,20,18.20
2008,05,23,13,21,18.50
2008,05,23,13,22,18.70
2008,05,23,13,23,18.70
2008,05,23,13,24,18.70
2008,05,23,13,25,18.80
2008,05,23,13,26,18.90
2008,05,23,13,27,18.90
2008,05,23,13,28,19.00
2008,05,23,13,29,19.10
2008,05,23,13,30,19.10
2008,05,23,13,31,19.10
2008,05,23,13,32,19.20
2008,05,23,13,33,19.30
2008,05,23,13,34,19.40
2008,05,23,13,35,19.40
2008,05,23,13,36,19.40
2008,05,23,13,37,19.30
2008,05,23,13,38,19.30
2008,05,23,13,39,19.10
2008,05,23,13,40,18.80
2008,05,23,13,41,18.60
2008,05,23,13,42,18.40
2008,05,23,13,43,18.30
2008,05,23,13,44,18.30
2008,05,23,13,45,18.30
2008,05,23,13,46,18.40
2008,05,23,13,47,18.40
2008,05,23,13,48,18.40
2008,05,23,13,49,18.30
2008,05,23,13,50,18.20
2008,05,23,13,51,18.20
2008,05,23,13,52,18.10
2008,05,23,13,53,18.10
2008,05,23,13,54,18.00
2008,05,23,13,55,17.90
2008,05,23,13,56,17.90
2008,05,23,13,57,17.90
2008,05,23,13,58,17.90
2008,05,23,13,59,17.90
2008,05,23,14,00,17.90
2008,05,23,14,01,17.90
2008,05,23,14,02,17.80
2008,05,23,14,03,17.80
2008,05,23,14,04,17.80
2008,05,23,14,05,17.80
2008,05,23,14,06,17.80
2008,05,23,14,07,17.70
2008,05,23,14,08,17.70
2008,05,23,14,09,17.70
2008,05,23,14,10,17.70
2008,05,23,14,11,17.80
2008,05,23,14,12,17.80
2008,05,23,14,13,17.90
2008,05,23,14,14,17.90
2008,05,23,14,15,17.90
2008,05,23,14,16,17.90
2008,05,23,14,17,18.10
2008,05,23,14,18,18.10
2008,05,23,14,19,17.90
2008,05,23,14,20,17.90
2008,05,23,14,21,17.90
2008,05,23,14,22,17.70
2008,05,23,14,23,17.50
2008,05,23,14,24,17.40
2008,05,23,14,25,17.30
2008,05,23,14,26,17.30
2008,05,23,14,27,17.30
2008,05,23,14,28,17.30
2008,05,23,14,29,17.30
2008,05,23,14,30,17.30
2008,05,23,14,31,17.30
2008,05,23,14,32,17.30
2008,05,23,14,33,17.20
2008,05,23,14,34,17.10
2008,05,23,14,35,17.00
2008,05,23,14,36,16.90
2008,05,23,14,37,16.80
2008,05,23,14,38,16.80
2008,05,23,14,39,16.80
2008,05,23,14,40,16.80
2008,05,23,14,41,16.80
2008,05,23,14,42,16.80
2008,05,23,14,43,16.80
2008,05,23,14,44,16.80
2008,05,23,14,45,16.80
2008,05,23,14,46,16.80
2008,05,23,14,47,16.80
2008,05,23,14,48,16.80
2008,05,23,14,49,16.80
2008,05,23,14,50,16.80
2008,05,23,14,51,16.90
2008,05,23,14,52,16.90
2008,05,23,14,53,17.00
2008,05,23,14,54,17.00
2008,05,23,14,55,17.10
2008,05,23,14,56,17.20
2008,05,23,14,57,17.20
2008,05,23,14,58,17.30
2008,05,23,14,59,17.30
2008,05,23,15,00,17.30
2008,05,23,15,01,17.40
2008,05,23,15,02,17.50
2008,05,23,15,03,17.50
2008,05,23,15,04,17.50
2008,05,23,15,05,17.50
2008,05,23,15,06,17.50
2008,05,23,15,07,17.40
2008,05,23,15,08,17.40
2008,05,23,15,09,17.50
2008,05,23,15,10,17.50
2008,05,23,15,11,17.50
2008,05,23,15,12,17.50
2008,05,23,15,13,17.50
2008,05,23,15,14,17.50
2008,05,23,15,15,17.50
2008,05,23,15,16,17.50
2008,05,23,15,17,17.50
2008,05,23,15,18,17.30
2008,05,23,15,19,17.30
2008,05,23,15,20,17.20
2008,05,23,15,21,17.20
2008,05,23,15,22,17.20
2008,05,23,15,23,17.20
2008,05,23,15,24,17.20
2008,05,23,15,25,17.30
2008,05,23,15,26,17.30
2008,05,23,15,27,17.30
2008,05,23,15,28,17.30
2008,05,23,15,29,17.30
2008,05,23,15,30,17.20
2008,05,23,15,31,17.20
2008,05,23,15,32,17.20
2008,05,23,15,33,17.20
2008,05,23,15,34,17.10
2008,05,23,15,35,17.00
2008,05,23,15,36,17.00
2008,05,23,15,37,16.90
2008,05,23,15,38,16.90
2008,05,23,15,39,16.80
2008,05,23,15,40,16.70
2008,05,23,15,41,16.70
2008,05,23,15,42,16.70
2008,05,23,15,43,16.70
2008,05,23,15,44,16.70
2008,05,23,15,45,16.70
2008,05,23,15,46,16.70
2008,05,23,15,47,16.70
2008,05,23,15,48,16.60
2008,05,23,15,49,16.60
2008,05,23,15,50,16.50
2008,05,23,15,51,16.40
2008,05,23,15,52,16.40
2008,05,23,15,53,16.40
2008,05,23,15,54,16.30
2008,05,23,15,55,16.30
2008,05,23,15,56,16.30
2008,05,23,15,57,16.30
2008,05,23,15,58,16.30
2008,05,23,15,59,16.30
2008,05,23,16,00,16.30
2008,05,23,16,01,16.30
2008,05,23,16,02,16.30
2008,05,23,16,03,16.30
2008,05,23,16,04,16.40
2008,05,23,16,05,16.40
2008,05,23,16,06,16.40
2008,05,23,16,07,16.40
2008,05,23,16,08,16.40
2008,05,23,16,09,16.40
2008,05,23,16,10,16.40
2008,05,23,16,11,16.60
2008,05,23,16,12,16.60
2008,05,23,16,13,16.60
2008,05,23,16,14,16.70
2008,05,23,16,15,16.70
2008,05,23,16,16,16.70
2008,05,23,16,17,16.70
2008,05,23,16,18,16.70
2008,05,23,16,19,16.70
2008,05,23,16,20,16.70
2008,05,23,16,21,16.70
2008,05,23,16,22,16.70
2008,05,23,16,23,16.70
2008,05,23,16,24,16.70
2008,05,23,16,25,16.70
2008,05,23,16,26,16.70
2008,05,23,16,27,16.70
2008,05,23,16,28,16.70
2008,05,23,16,29,16.70
2008,05,23,16,30,16.60
2008,05,23,16,31,16.60
2008,05,23,16,32,16.60
2008,05,23,16,33,16.60
2008,05,23,16,34,16.60
2008,05,23,16,35,16.60
2008,05,23,16,36,16.60
2008,05,23,16,37,16.40
2008,05,23,16,38,16.40
2008,05,23,16,39,16.40
2008,05,23,16,40,16.40
2008,05,23,16,41,16.40
2008,05,23,16,42,16.40
2008,05,23,16,43,16.40
2008,05,23,16,44,16.40
2008,05,23,16,45,16.40
2008,05,23,16,46,16.50
2008,05,23,16,47,16.40
2008,05,23,16,48,16.60
2008,05,23,16,49,16.50
2008,05,23,16,50,16.40
2008,05,23,16,51,16.50
2008,05,23,16,52,16.60
2008,05,23,16,53,16.60
2008,05,23,16,54,16.60
2008,05,23,16,55,16.60
2008,05,23,16,56,16.60
2008,05,23,16,57,16.60
2008,05,23,16,58,16.60
2008,05,23,16,59,16.60
2008,05,23,17,00,16.60
2008,05,23,17,01,16.60
2008,05,23,17,02,16.60
2008,05,23,17,03,16.60
2008,05,23,17,04,16.50
2008,05,23,17,05,16.40
2008,05,23,17,06,16.40
2008,05,23,17,07,16.40
2008,05,23,17,08,16.40
2008,05,23,17,09,16.50
2008,05,23,17,10,16.60
2008,05,23,17,11,16.60
2008,05,23,17,12,16.60
2008,05,23,17,13,16.60
2008,05,23,17,14,16.60
2008,05,23,17,15,16.70
2008,05,23,17,16,16.70
2008,05,23,17,17,16.70
2008,05,23,17,18,16.70
2008,05,23,17,19,16.70
2008,05,23,17,20,16.70
2008,05,23,17,21,16.70
2008,05,23,17,22,16.70
2008,05,23,17,23,16.70
2008,05,23,17,24,16.70
2008,05,23,17,25,16.70
2008,05,23,17,26,16.70
2008,05,23,17,27,16.70
2008,05,23,17,28,16.70
2008,05,23,17,29,16.70
2008,05,23,17,30,16.70
2008,05,23,17,31,16.70
2008,05,23,17,32,16.70
2008,05,23,17,33,16.70
2008,05,23,17,34,16.70
2008,05,23,17,35,16.80
2008,05,23,17,36,16.80
2008,05,23,17,37,16.80
2008,05,23,17,38,16.80
2008,05,23,17,39,16.80
2008,05,23,17,40,16.80
2008,05,23,17,41,16.70